Year,Month,Day,Hour,Minute,Value (Times are PST for temperature in C)
2015,03,07,00,00,4.50
2015,03,07,00,01,4.50
2015,03,07,00,02,4.50
2015,03,07,00,03,4.50
2015,03,07,00,04,4.50
2015,03,07,00,05,4.50
2015,03,07,00,06,4.50
2015,03,07,00,07,4.50
2015,03,07,00,08,4.50
2015,03,07,00,09,4.50
2015,03,07,00,10,4.50
2015,03,07,00,11,4.40
2015,03,07,00,12,4.40
2015,03,07,00,13,4.40
2015,03,07,00,17,4.50
2015,03,07,00,18,4.60
2015,03,07,00,19,4.60
2015,03,07,00,20,4.70
2015,03,07,00,21,4.70
2015,03,07,00,22,4.60
2015,03,07,00,23,4.60
2015,03,07,00,24,4.60
2015,03,07,00,25,4.60
2015,03,07,00,26,4.60
2015,03,07,00,27,4.50
2015,03,07,00,28,4.60
2015,03,07,00,29,4.60
2015,03,07,00,30,4.60
2015,03,07,00,31,4.50
2015,03,07,00,32,4.50
2015,03,07,00,33,4.50
2015,03,07,00,34,4.40
2015,03,07,00,35,4.40
2015,03,07,00,36,4.30
2015,03,07,00,37,4.30
2015,03,07,00,38,4.30
2015,03,07,00,39,4.30
2015,03,07,00,40,4.30
2015,03,07,00,41,4.30
2015,03,07,00,42,4.30
2015,03,07,00,43,4.30
2015,03,07,00,44,4.30
2015,03,07,00,45,4.30
2015,03,07,00,46,4.30
2015,03,07,00,47,4.30
2015,03,07,00,48,4.30
2015,03,07,00,49,4.30
2015,03,07,00,50,4.30
2015,03,07,00,51,4.30
2015,03,07,00,52,4.30
2015,03,07,00,53,4.40
2015,03,07,00,54,4.40
2015,03,07,00,55,4.40
2015,03,07,00,56,4.50
2015,03,07,00,57,4.50
2015,03,07,00,58,4.50
2015,03,07,00,59,4.40
2015,03,07,01,00,4.40
2015,03,07,01,01,4.40
2015,03,07,01,02,4.40
2015,03,07,01,03,4.40
2015,03,07,01,04,4.40
2015,03,07,01,05,4.40
2015,03,07,01,06,4.40
2015,03,07,01,07,4.40
2015,03,07,01,08,4.40
2015,03,07,01,09,4.50
2015,03,07,01,10,4.50
2015,03,07,01,11,4.50
2015,03,07,01,12,4.40
2015,03,07,01,13,4.40
2015,03,07,01,14,4.40
2015,03,07,01,15,4.30
2015,03,07,01,16,4.30
2015,03,07,01,17,4.30
2015,03,07,01,18,4.30
2015,03,07,01,19,4.30
2015,03,07,01,20,4.20
2015,03,07,01,21,4.20
2015,03,07,01,22,4.20
2015,03,07,01,23,4.20
2015,03,07,01,24,4.20
2015,03,07,01,25,4.20
2015,03,07,01,26,4.20
2015,03,07,01,27,4.20
2015,03,07,01,28,4.20
2015,03,07,01,29,4.20
2015,03,07,01,30,4.20
2015,03,07,01,31,4.20
2015,03,07,01,32,4.20
2015,03,07,01,33,4.20
2015,03,07,01,34,4.20
2015,03,07,01,35,4.20
2015,03,07,01,36,4.20
2015,03,07,01,37,4.30
2015,03,07,01,38,4.30
2015,03,07,01,39,4.30
2015,03,07,01,40,4.30
2015,03,07,01,41,4.30
2015,03,07,01,42,4.30
2015,03,07,01,43,4.20
2015,03,07,01,44,4.20
2015,03,07,01,45,4.20
2015,03,07,01,46,4.30
2015,03,07,01,47,4.30
2015,03,07,01,48,4.30
2015,03,07,01,49,4.30
2015,03,07,01,50,4.20
2015,03,07,01,51,4.20
2015,03,07,01,52,4.20
2015,03,07,01,53,4.20
2015,03,07,01,54,4.20
2015,03,07,01,55,4.30
2015,03,07,01,56,4.30
2015,03,07,01,57,4.30
2015,03,07,01,58,4.30
2015,03,07,01,59,4.20
2015,03,07,02,00,4.10
2015,03,07,02,01,4.00
2015,03,07,02,02,4.00
2015,03,07,02,03,3.90
2015,03,07,02,04,3.90
2015,03,07,02,05,3.90
2015,03,07,02,06,3.90
2015,03,07,02,07,4.00
2015,03,07,02,08,4.00
2015,03,07,02,09,4.00
2015,03,07,02,10,3.90
2015,03,07,02,11,3.90
2015,03,07,02,12,3.90
2015,03,07,02,13,4.00
2015,03,07,02,14,4.00
2015,03,07,02,15,4.00
2015,03,07,02,16,4.00
2015,03,07,02,17,3.90
2015,03,07,02,18,3.90
2015,03,07,02,19,3.80
2015,03,07,02,20,3.80
2015,03,07,02,21,3.80
2015,03,07,02,22,3.70
2015,03,07,02,23,3.70
2015,03,07,02,24,3.70
2015,03,07,02,25,3.70
2015,03,07,02,26,3.60
2015,03,07,02,27,3.60
2015,03,07,02,28,3.60
2015,03,07,02,29,3.60
2015,03,07,02,30,3.70
2015,03,07,02,31,3.70
2015,03,07,02,32,3.70
2015,03,07,02,33,3.70
2015,03,07,02,34,3.70
2015,03,07,02,35,3.70
2015,03,07,02,36,3.70
2015,03,07,02,37,3.60
2015,03,07,02,38,3.60
2015,03,07,02,39,3.50
2015,03,07,02,40,3.50
2015,03,07,02,41,3.50
2015,03,07,02,42,3.40
2015,03,07,02,43,3.40
2015,03,07,02,44,3.40
2015,03,07,02,45,3.30
2015,03,07,02,46,3.30
2015,03,07,02,47,3.30
2015,03,07,02,48,3.20
2015,03,07,02,49,3.20
2015,03,07,02,50,3.30
2015,03,07,02,51,3.40
2015,03,07,02,52,3.40
2015,03,07,02,53,3.50
2015,03,07,02,54,3.60
2015,03,07,02,55,3.50
2015,03,07,02,56,3.40
2015,03,07,02,57,3.30
2015,03,07,02,58,3.30
2015,03,07,02,59,3.30
2015,03,07,03,00,3.30
2015,03,07,03,01,3.50
2015,03,07,03,02,3.60
2015,03,07,03,03,3.60
2015,03,07,03,04,3.60
2015,03,07,03,05,3.50
2015,03,07,03,06,3.40
2015,03,07,03,07,3.30
2015,03,07,03,08,3.20
2015,03,07,03,09,3.20
2015,03,07,03,10,3.10
2015,03,07,03,11,3.10
2015,03,07,03,12,3.00
2015,03,07,03,13,3.00
2015,03,07,03,14,3.00
2015,03,07,03,15,3.10
2015,03,07,03,16,3.20
2015,03,07,03,17,3.30
2015,03,07,03,18,3.40
2015,03,07,03,19,3.30
2015,03,07,03,20,3.30
2015,03,07,03,21,3.30
2015,03,07,03,22,3.20
2015,03,07,03,23,3.20
2015,03,07,03,24,3.20
2015,03,07,03,25,3.10
2015,03,07,03,26,3.10
2015,03,07,03,27,3.00
2015,03,07,03,28,3.00
2015,03,07,03,29,2.90
2015,03,07,03,30,2.90
2015,03,07,03,31,2.90
2015,03,07,03,32,2.90
2015,03,07,03,33,2.90
2015,03,07,03,34,3.00
2015,03,07,03,35,3.10
2015,03,07,03,36,3.20
2015,03,07,03,37,3.30
2015,03,07,03,38,3.30
2015,03,07,03,39,3.30
2015,03,07,03,40,3.30
2015,03,07,03,41,3.20
2015,03,07,03,42,3.10
2015,03,07,03,43,3.00
2015,03,07,03,44,2.90
2015,03,07,03,45,2.90
2015,03,07,03,46,2.80
2015,03,07,03,47,2.80
2015,03,07,03,48,2.70
2015,03,07,03,49,2.70
2015,03,07,03,50,2.70
2015,03,07,03,51,2.80
2015,03,07,03,52,2.80
2015,03,07,03,53,2.80
2015,03,07,03,54,2.80
2015,03,07,03,55,2.80
2015,03,07,03,56,2.90
2015,03,07,03,57,2.90
2015,03,07,03,58,3.00
2015,03,07,03,59,3.00
2015,03,07,04,00,3.00
2015,03,07,04,01,3.00
2015,03,07,04,02,3.00
2015,03,07,04,03,3.00
2015,03,07,04,04,3.10
2015,03,07,04,05,3.20
2015,03,07,04,06,3.30
2015,03,07,04,07,3.30
2015,03,07,04,08,3.30
2015,03,07,04,09,3.30
2015,03,07,04,10,3.30
2015,03,07,04,11,3.30
2015,03,07,04,12,3.30
2015,03,07,04,13,3.30
2015,03,07,04,14,3.40
2015,03,07,04,15,3.40
2015,03,07,04,16,3.30
2015,03,07,04,17,3.30
2015,03,07,04,18,3.30
2015,03,07,04,19,3.20
2015,03,07,04,20,3.20
2015,03,07,04,21,3.10
2015,03,07,04,22,3.10
2015,03,07,04,23,3.10
2015,03,07,04,24,3.10
2015,03,07,04,25,3.10
2015,03,07,04,26,3.10
2015,03,07,04,27,3.10
2015,03,07,04,28,3.00
2015,03,07,04,29,2.90
2015,03,07,04,30,2.90
2015,03,07,04,31,2.90
2015,03,07,04,32,2.90
2015,03,07,04,33,2.90
2015,03,07,04,34,2.90
2015,03,07,04,35,3.00
2015,03,07,04,36,3.00
2015,03,07,04,37,3.00
2015,03,07,04,38,2.90
2015,03,07,04,39,2.90
2015,03,07,04,40,2.90
2015,03,07,04,41,2.80
2015,03,07,04,42,2.70
2015,03,07,04,43,2.70
2015,03,07,04,44,2.70
2015,03,07,04,45,2.70
2015,03,07,04,46,2.60
2015,03,07,04,47,2.60
2015,03,07,04,48,2.60
2015,03,07,04,49,2.60
2015,03,07,04,50,2.60
2015,03,07,04,51,2.60
2015,03,07,04,52,2.60
2015,03,07,04,53,2.60
2015,03,07,04,54,2.50
2015,03,07,04,55,2.50
2015,03,07,04,56,2.40
2015,03,07,04,57,2.40
2015,03,07,04,58,2.40
2015,03,07,04,59,2.30
2015,03,07,05,00,2.30
2015,03,07,05,01,2.30
2015,03,07,05,02,2.30
2015,03,07,05,03,2.30
2015,03,07,05,04,2.40
2015,03,07,05,05,2.40
2015,03,07,05,06,2.50
2015,03,07,05,07,2.60
2015,03,07,05,08,2.70
2015,03,07,05,09,2.70
2015,03,07,05,10,2.70
2015,03,07,05,11,2.60
2015,03,07,05,12,2.60
2015,03,07,05,13,2.60
2015,03,07,05,14,2.50
2015,03,07,05,15,2.50
2015,03,07,05,16,2.40
2015,03,07,05,17,2.40
2015,03,07,05,18,2.30
2015,03,07,05,19,2.20
2015,03,07,05,20,2.20
2015,03,07,05,21,2.20
2015,03,07,05,22,2.20
2015,03,07,05,23,2.20
2015,03,07,05,24,2.20
2015,03,07,05,25,2.20
2015,03,07,05,26,2.20
2015,03,07,05,27,2.30
2015,03,07,05,28,2.30
2015,03,07,05,29,2.30
2015,03,07,05,30,2.30
2015,03,07,05,31,2.30
2015,03,07,05,32,2.20
2015,03,07,05,33,2.20
2015,03,07,05,34,2.10
2015,03,07,05,35,2.10
2015,03,07,05,36,2.10
2015,03,07,05,37,2.10
2015,03,07,05,38,2.10
2015,03,07,05,39,2.10
2015,03,07,05,40,2.10
2015,03,07,05,41,2.10
2015,03,07,05,42,2.10
2015,03,07,05,43,2.20
2015,03,07,05,44,2.20
2015,03,07,05,45,2.30
2015,03,07,05,46,2.30
2015,03,07,05,47,2.30
2015,03,07,05,48,2.30
2015,03,07,05,49,2.30
2015,03,07,05,50,2.40
2015,03,07,05,51,2.40
2015,03,07,05,52,2.40
2015,03,07,05,53,2.40
2015,03,07,05,54,2.40
2015,03,07,05,55,2.40
2015,03,07,05,56,2.40
2015,03,07,05,57,2.40
2015,03,07,05,58,2.40
2015,03,07,05,59,2.40
2015,03,07,06,00,2.30
2015,03,07,06,01,2.30
2015,03,07,06,02,2.30
2015,03,07,06,03,2.30
2015,03,07,06,04,2.30
2015,03,07,06,05,2.30
2015,03,07,06,06,2.30
2015,03,07,06,07,2.30
2015,03,07,06,08,2.30
2015,03,07,06,09,2.30
2015,03,07,06,10,2.30
2015,03,07,06,11,2.30
2015,03,07,06,12,2.40
2015,03,07,06,13,2.40
2015,03,07,06,14,2.40
2015,03,07,06,15,2.40
2015,03,07,06,16,2.30
2015,03,07,06,17,2.30
2015,03,07,06,18,2.30
2015,03,07,06,19,2.30
2015,03,07,06,20,2.30
2015,03,07,06,21,2.30
2015,03,07,06,22,2.30
2015,03,07,06,23,2.30
2015,03,07,06,24,2.30
2015,03,07,06,25,2.30
2015,03,07,06,26,2.30
2015,03,07,06,27,2.30
2015,03,07,06,28,2.20
2015,03,07,06,29,2.20
2015,03,07,06,30,2.20
2015,03,07,06,31,2.20
2015,03,07,06,32,2.10
2015,03,07,06,33,2.00
2015,03,07,06,34,2.00
2015,03,07,06,35,1.90
2015,03,07,06,36,1.90
2015,03,07,06,37,1.90
2015,03,07,06,38,2.00
2015,03,07,06,39,2.00
2015,03,07,06,40,2.00
2015,03,07,06,41,2.00
2015,03,07,06,42,2.00
2015,03,07,06,43,2.00
2015,03,07,06,44,2.10
2015,03,07,06,45,2.10
2015,03,07,06,46,2.20
2015,03,07,06,47,2.20
2015,03,07,06,48,2.20
2015,03,07,06,49,2.20
2015,03,07,06,50,2.20
2015,03,07,06,51,2.20
2015,03,07,06,52,2.20
2015,03,07,06,53,2.20
2015,03,07,06,54,2.10
2015,03,07,06,55,2.10
2015,03,07,06,56,2.20
2015,03,07,06,57,2.20
2015,03,07,06,58,2.20
2015,03,07,06,59,2.30
2015,03,07,07,00,2.30
2015,03,07,07,01,2.30
2015,03,07,07,02,2.30
2015,03,07,07,03,2.30
2015,03,07,07,04,2.30
2015,03,07,07,05,2.30
2015,03,07,07,06,2.30
2015,03,07,07,07,2.30
2015,03,07,07,08,2.40
2015,03,07,07,09,2.40
2015,03,07,07,10,2.40
2015,03,07,07,11,2.40
2015,03,07,07,12,2.40
2015,03,07,07,13,2.40
2015,03,07,07,14,2.50
2015,03,07,07,15,2.50
2015,03,07,07,16,2.50
2015,03,07,07,17,2.50
2015,03,07,07,18,2.60
2015,03,07,07,19,2.60
2015,03,07,07,20,2.70
2015,03,07,07,21,2.70
2015,03,07,07,22,2.80
2015,03,07,07,23,2.80
2015,03,07,07,24,2.80
2015,03,07,07,25,2.80
2015,03,07,07,26,2.70
2015,03,07,07,27,2.70
2015,03,07,07,28,2.70
2015,03,07,07,29,2.60
2015,03,07,07,30,2.60
2015,03,07,07,31,2.50
2015,03,07,07,32,2.40
2015,03,07,07,33,2.40
2015,03,07,07,34,2.30
2015,03,07,07,35,2.30
2015,03,07,07,36,2.20
2015,03,07,07,37,2.20
2015,03,07,07,38,2.20
2015,03,07,07,39,2.20
2015,03,07,07,40,2.20
2015,03,07,07,41,2.20
2015,03,07,07,42,2.20
2015,03,07,07,43,2.20
2015,03,07,07,44,2.20
2015,03,07,07,45,2.20
2015,03,07,07,46,2.20
2015,03,07,07,47,2.20
2015,03,07,07,48,2.20
2015,03,07,07,49,2.20
2015,03,07,07,50,2.20
2015,03,07,07,51,2.20
2015,03,07,07,52,2.20
2015,03,07,07,53,2.20
2015,03,07,07,54,2.20
2015,03,07,07,55,2.20
2015,03,07,07,56,2.20
2015,03,07,07,57,2.30
2015,03,07,07,58,2.30
2015,03,07,07,59,2.30
2015,03,07,08,00,2.30
2015,03,07,08,01,2.40
2015,03,07,08,02,2.40
2015,03,07,08,03,2.50
2015,03,07,08,04,2.50
2015,03,07,08,05,2.60
2015,03,07,08,06,2.60
2015,03,07,08,07,2.70
2015,03,07,08,08,2.70
2015,03,07,08,09,2.60
2015,03,07,08,10,2.60
2015,03,07,08,11,2.60
2015,03,07,08,12,2.60
2015,03,07,08,13,2.50
2015,03,07,08,14,2.60
2015,03,07,08,15,2.60
2015,03,07,08,16,2.60
2015,03,07,08,17,2.60
2015,03,07,08,18,2.70
2015,03,07,08,19,2.70
2015,03,07,08,20,2.70
2015,03,07,08,21,2.80
2015,03,07,08,22,2.80
2015,03,07,08,23,2.90
2015,03,07,08,24,3.00
2015,03,07,08,25,3.10
2015,03,07,08,26,3.20
2015,03,07,08,27,3.20
2015,03,07,08,28,3.30
2015,03,07,08,29,3.40
2015,03,07,08,30,3.50
2015,03,07,08,31,3.50
2015,03,07,08,32,3.60
2015,03,07,08,33,3.70
2015,03,07,08,34,3.70
2015,03,07,08,35,3.80
2015,03,07,08,36,3.90
2015,03,07,08,37,4.00
2015,03,07,08,38,4.10
2015,03,07,08,39,4.10
2015,03,07,08,40,4.20
2015,03,07,08,41,4.30
2015,03,07,08,42,4.40
2015,03,07,08,43,4.40
2015,03,07,08,44,4.50
2015,03,07,08,45,4.60
2015,03,07,08,46,4.70
2015,03,07,08,47,4.70
2015,03,07,08,48,4.80
2015,03,07,08,49,4.80
2015,03,07,08,50,4.80
2015,03,07,08,51,4.90
2015,03,07,08,52,5.00
2015,03,07,08,53,5.10
2015,03,07,08,54,5.10
2015,03,07,08,55,5.20
2015,03,07,08,56,5.30
2015,03,07,08,57,5.30
2015,03,07,08,58,5.30
2015,03,07,08,59,5.30
2015,03,07,09,00,5.40
2015,03,07,09,01,5.50
2015,03,07,09,02,5.60
2015,03,07,09,03,5.70
2015,03,07,09,04,5.80
2015,03,07,09,05,5.90
2015,03,07,09,06,5.90
2015,03,07,09,07,6.00
2015,03,07,09,08,6.00
2015,03,07,09,09,6.10
2015,03,07,09,10,6.20
2015,03,07,09,11,6.30
2015,03,07,09,12,6.30
2015,03,07,09,13,6.40
2015,03,07,09,14,6.50
2015,03,07,09,15,6.60
2015,03,07,09,16,6.70
2015,03,07,09,17,6.70
2015,03,07,09,18,6.80
2015,03,07,09,19,6.80
2015,03,07,09,20,6.90
2015,03,07,09,21,6.90
2015,03,07,09,22,7.00
2015,03,07,09,23,7.00
2015,03,07,09,24,7.10
2015,03,07,09,25,7.20
2015,03,07,09,26,7.30
2015,03,07,09,27,7.40
2015,03,07,09,28,7.50
2015,03,07,09,29,7.60
2015,03,07,09,30,7.60
2015,03,07,09,31,7.70
2015,03,07,09,32,7.80
2015,03,07,09,33,7.80
2015,03,07,09,34,7.90
2015,03,07,09,35,8.00
2015,03,07,09,36,8.00
2015,03,07,09,37,8.00
2015,03,07,09,38,8.10
2015,03,07,09,39,8.20
2015,03,07,09,40,8.20
2015,03,07,09,41,8.30
2015,03,07,09,42,8.30
2015,03,07,09,43,8.40
2015,03,07,09,44,8.40
2015,03,07,09,45,8.50
2015,03,07,09,46,8.60
2015,03,07,09,47,8.70
2015,03,07,09,48,8.80
2015,03,07,09,49,8.90
2015,03,07,09,50,9.10
2015,03,07,09,51,9.20
2015,03,07,09,52,9.20
2015,03,07,09,53,9.30
2015,03,07,09,54,9.40
2015,03,07,09,55,9.50
2015,03,07,09,56,9.50
2015,03,07,09,57,9.50
2015,03,07,09,58,9.60
2015,03,07,09,59,9.60
2015,03,07,10,00,9.60
2015,03,07,10,01,9.60
2015,03,07,10,02,9.70
2015,03,07,10,03,9.70
2015,03,07,10,04,9.80
2015,03,07,10,05,9.80
2015,03,07,10,06,9.80
2015,03,07,10,07,9.80
2015,03,07,10,08,9.90
2015,03,07,10,09,9.90
2015,03,07,10,10,10.00
2015,03,07,10,11,10.10
2015,03,07,10,12,10.20
2015,03,07,10,13,10.30
2015,03,07,10,14,10.40
2015,03,07,10,15,10.40
2015,03,07,10,16,10.50
2015,03,07,10,17,10.60
2015,03,07,10,18,10.70
2015,03,07,10,19,10.80
2015,03,07,10,20,10.90
2015,03,07,10,21,11.00
2015,03,07,10,22,11.10
2015,03,07,10,23,11.20
2015,03,07,10,24,11.30
2015,03,07,10,25,11.40
2015,03,07,10,26,11.50
2015,03,07,10,27,11.60
2015,03,07,10,28,11.60
2015,03,07,10,29,11.70
2015,03,07,10,30,11.80
2015,03,07,10,31,11.90
2015,03,07,10,32,11.90
2015,03,07,10,33,11.90
2015,03,07,10,34,11.90
2015,03,07,10,35,11.90
2015,03,07,10,36,11.80
2015,03,07,10,37,11.70
2015,03,07,10,38,11.50
2015,03,07,10,39,11.40
2015,03,07,10,40,11.30
2015,03,07,10,41,11.20
2015,03,07,10,42,11.10
2015,03,07,10,43,11.00
2015,03,07,10,44,10.90
2015,03,07,10,45,10.80
2015,03,07,10,46,10.70
2015,03,07,10,47,10.60
2015,03,07,10,48,10.60
2015,03,07,10,49,10.50
2015,03,07,10,50,10.40
2015,03,07,10,51,10.40
2015,03,07,10,52,10.40
2015,03,07,10,53,10.50
2015,03,07,10,54,10.50
2015,03,07,10,55,10.60
2015,03,07,10,56,10.60
2015,03,07,10,57,10.70
2015,03,07,10,58,10.70
2015,03,07,10,59,10.80
2015,03,07,11,00,10.80
2015,03,07,11,01,10.90
2015,03,07,11,02,10.90
2015,03,07,11,03,11.00
2015,03,07,11,04,11.00
2015,03,07,11,05,11.10
2015,03,07,11,06,11.10
2015,03,07,11,07,11.20
2015,03,07,11,08,11.30
2015,03,07,11,09,11.30
2015,03,07,11,10,11.30
2015,03,07,11,11,11.30
2015,03,07,11,12,11.30
2015,03,07,11,13,11.30
2015,03,07,11,14,11.30
2015,03,07,11,15,11.30
2015,03,07,11,16,11.20
2015,03,07,11,17,11.20
2015,03,07,11,18,11.20
2015,03,07,11,19,11.30
2015,03,07,11,20,11.30
2015,03,07,11,21,11.30
2015,03,07,11,22,11.30
2015,03,07,11,23,11.30
2015,03,07,11,24,11.30
2015,03,07,11,25,11.30
2015,03,07,11,26,11.30
2015,03,07,11,27,11.20
2015,03,07,11,28,11.20
2015,03,07,11,29,11.20
2015,03,07,11,30,11.20
2015,03,07,11,31,11.20
2015,03,07,11,32,11.20
2015,03,07,11,33,11.20
2015,03,07,11,34,11.20
2015,03,07,11,35,11.20
2015,03,07,11,36,11.20
2015,03,07,11,37,11.20
2015,03,07,11,38,11.20
2015,03,07,11,39,11.20
2015,03,07,11,40,11.30
2015,03,07,11,41,11.30
2015,03,07,11,42,11.30
2015,03,07,11,43,11.40
2015,03,07,11,44,11.40
2015,03,07,11,45,11.40
2015,03,07,11,46,11.40
2015,03,07,11,47,11.40
2015,03,07,11,48,11.40
2015,03,07,11,49,11.40
2015,03,07,11,50,11.50
2015,03,07,11,51,11.50
2015,03,07,11,52,11.50
2015,03,07,11,53,11.60
2015,03,07,11,54,11.60
2015,03,07,11,55,11.70
2015,03,07,11,56,11.80
2015,03,07,11,57,11.80
2015,03,07,11,58,11.90
2015,03,07,11,59,11.80
2015,03,07,12,00,11.80
2015,03,07,12,01,11.80
2015,03,07,12,02,11.70
2015,03,07,12,03,11.70
2015,03,07,12,04,11.80
2015,03,07,12,05,11.80
2015,03,07,12,06,11.80
2015,03,07,12,07,11.90
2015,03,07,12,08,11.90
2015,03,07,12,09,11.90
2015,03,07,12,10,11.90
2015,03,07,12,11,11.90
2015,03,07,12,12,11.80
2015,03,07,12,13,11.80
2015,03,07,12,14,11.70
2015,03,07,12,15,11.60
2015,03,07,12,16,11.60
2015,03,07,12,17,11.60
2015,03,07,12,18,11.60
2015,03,07,12,19,11.60
2015,03,07,12,20,11.60
2015,03,07,12,21,11.60
2015,03,07,12,22,11.70
2015,03,07,12,23,11.80
2015,03,07,12,24,11.90
2015,03,07,12,25,11.90
2015,03,07,12,26,12.00
2015,03,07,12,27,12.10
2015,03,07,12,28,12.10
2015,03,07,12,29,12.20
2015,03,07,12,30,12.30
2015,03,07,12,31,12.50
2015,03,07,12,32,12.50
2015,03,07,12,33,12.60
2015,03,07,12,34,12.60
2015,03,07,12,35,12.70
2015,03,07,12,36,12.80
2015,03,07,12,37,12.90
2015,03,07,12,38,12.90
2015,03,07,12,39,12.90
2015,03,07,12,40,12.90
2015,03,07,12,41,12.90
2015,03,07,12,42,12.80
2015,03,07,12,43,12.80
2015,03,07,12,44,12.80
2015,03,07,12,45,12.90
2015,03,07,12,46,13.00
2015,03,07,12,47,13.00
2015,03,07,12,48,13.10
2015,03,07,12,49,13.10
2015,03,07,12,50,13.20
2015,03,07,12,51,13.10
2015,03,07,12,52,13.20
2015,03,07,12,53,13.20
2015,03,07,12,54,13.20
2015,03,07,12,55,13.20
2015,03,07,12,56,13.20
2015,03,07,12,57,13.20
2015,03,07,12,58,13.20
2015,03,07,12,59,13.20
2015,03,07,13,00,13.20
2015,03,07,13,01,13.30
2015,03,07,13,02,13.40
2015,03,07,13,03,13.50
2015,03,07,13,04,13.60
2015,03,07,13,05,13.60
2015,03,07,13,06,13.60
2015,03,07,13,07,13.60
2015,03,07,13,08,13.50
2015,03,07,13,09,13.50
2015,03,07,13,10,13.40
2015,03,07,13,11,13.40
2015,03,07,13,12,13.40
2015,03,07,13,13,13.40
2015,03,07,13,14,13.40
2015,03,07,13,15,13.40
2015,03,07,13,16,13.30
2015,03,07,13,17,13.30
2015,03,07,13,18,13.30
2015,03,07,13,19,13.30
2015,03,07,13,20,13.30
2015,03,07,13,21,13.20
2015,03,07,13,22,13.20
2015,03,07,13,23,13.20
2015,03,07,13,24,13.20
2015,03,07,13,25,13.20
2015,03,07,13,26,13.20
2015,03,07,13,27,13.10
2015,03,07,13,28,13.00
2015,03,07,13,29,13.00
2015,03,07,13,30,13.00
2015,03,07,13,31,13.00
2015,03,07,13,32,13.10
2015,03,07,13,33,13.10
2015,03,07,13,34,13.10
2015,03,07,13,35,13.10
2015,03,07,13,36,13.10
2015,03,07,13,37,13.10
2015,03,07,13,38,13.10
2015,03,07,13,39,13.00
2015,03,07,13,40,13.10
2015,03,07,13,41,13.10
2015,03,07,13,42,13.00
2015,03,07,13,43,13.00
2015,03,07,13,44,13.00
2015,03,07,13,45,13.00
2015,03,07,13,46,13.00
2015,03,07,13,47,13.00
2015,03,07,13,48,13.00
2015,03,07,13,49,13.10
2015,03,07,13,50,13.10
2015,03,07,13,51,13.10
2015,03,07,13,52,13.10
2015,03,07,13,53,13.10
2015,03,07,13,54,13.10
2015,03,07,13,55,13.10
2015,03,07,13,56,13.10
2015,03,07,13,57,13.20
2015,03,07,13,58,13.20
2015,03,07,13,59,13.20
2015,03,07,14,00,13.30
2015,03,07,14,01,13.30
2015,03,07,14,02,13.40
2015,03,07,14,03,13.40
2015,03,07,14,04,13.40
2015,03,07,14,05,13.50
2015,03,07,14,06,13.50
2015,03,07,14,07,13.50
2015,03,07,14,08,13.50
2015,03,07,14,09,13.50
2015,03,07,14,10,13.60
2015,03,07,14,11,13.60
2015,03,07,14,12,13.60
2015,03,07,14,13,13.60
2015,03,07,14,14,13.60
2015,03,07,14,15,13.60
2015,03,07,14,16,13.60
2015,03,07,14,17,13.50
2015,03,07,14,18,13.50
2015,03,07,14,19,13.50
2015,03,07,14,20,13.50
2015,03,07,14,21,13.50
2015,03,07,14,22,13.40
2015,03,07,14,23,13.40
2015,03,07,14,24,13.40
2015,03,07,14,25,13.40
2015,03,07,14,26,13.40
2015,03,07,14,27,13.30
2015,03,07,14,28,13.20
2015,03,07,14,29,13.10
2015,03,07,14,30,12.90
2015,03,07,14,31,12.80
2015,03,07,14,32,12.70
2015,03,07,14,33,12.60
2015,03,07,14,34,12.50
2015,03,07,14,35,12.50
2015,03,07,14,36,12.50
2015,03,07,14,37,12.50
2015,03,07,14,38,12.60
2015,03,07,14,39,12.70
2015,03,07,14,40,12.80
2015,03,07,14,41,12.90
2015,03,07,14,42,13.00
2015,03,07,14,43,13.10
2015,03,07,14,44,13.20
2015,03,07,14,45,13.20
2015,03,07,14,46,13.20
2015,03,07,14,47,13.20
2015,03,07,14,48,13.20
2015,03,07,14,49,13.20
2015,03,07,14,50,13.20
2015,03,07,14,51,13.10
2015,03,07,14,52,13.10
2015,03,07,14,53,13.00
2015,03,07,14,54,12.90
2015,03,07,14,55,12.80
2015,03,07,14,56,12.80
2015,03,07,14,57,12.80
2015,03,07,14,58,12.70
2015,03,07,14,59,12.70
2015,03,07,15,00,12.70
2015,03,07,15,01,12.70
2015,03,07,15,02,12.70
2015,03,07,15,03,12.80
2015,03,07,15,04,12.80
2015,03,07,15,05,12.90
2015,03,07,15,06,12.90
2015,03,07,15,07,13.00
2015,03,07,15,08,13.10
2015,03,07,15,09,13.20
2015,03,07,15,10,13.30
2015,03,07,15,11,13.30
2015,03,07,15,12,13.40
2015,03,07,15,13,13.40
2015,03,07,15,14,13.50
2015,03,07,15,15,13.60
2015,03,07,15,16,13.60
2015,03,07,15,17,13.70
2015,03,07,15,18,13.70
2015,03,07,15,19,13.70
2015,03,07,15,20,13.70
2015,03,07,15,21,13.70
2015,03,07,15,22,13.70
2015,03,07,15,23,13.70
2015,03,07,15,24,13.70
2015,03,07,15,25,13.60
2015,03,07,15,26,13.60
2015,03,07,15,27,13.60
2015,03,07,15,28,13.60
2015,03,07,15,29,13.60
2015,03,07,15,30,13.60
2015,03,07,15,31,13.60
2015,03,07,15,32,13.60
2015,03,07,15,33,13.60
2015,03,07,15,34,13.70
2015,03,07,15,35,13.70
2015,03,07,15,36,13.70
2015,03,07,15,37,13.80
2015,03,07,15,38,13.80
2015,03,07,15,39,13.80
2015,03,07,15,40,13.80
2015,03,07,15,41,13.90
2015,03,07,15,42,13.90
2015,03,07,15,43,13.90
2015,03,07,15,44,13.90
2015,03,07,15,45,13.90
2015,03,07,15,46,13.90
2015,03,07,15,47,13.90
2015,03,07,15,48,13.90
2015,03,07,15,49,13.90
2015,03,07,15,50,14.00
2015,03,07,15,51,14.00
2015,03,07,15,52,14.10
2015,03,07,15,53,14.10
2015,03,07,15,54,14.10
2015,03,07,15,55,14.20
2015,03,07,15,56,14.20
2015,03,07,15,57,14.20
2015,03,07,15,58,14.20
2015,03,07,15,59,14.20
2015,03,07,16,00,14.20
2015,03,07,16,01,14.20
2015,03,07,16,02,14.20
2015,03,07,16,03,14.10
2015,03,07,16,04,14.10
2015,03,07,16,05,14.10
2015,03,07,16,06,14.10
2015,03,07,16,07,14.10
2015,03,07,16,08,14.10
2015,03,07,16,09,14.10
2015,03,07,16,10,14.10
2015,03,07,16,11,14.00
2015,03,07,16,12,14.00
2015,03,07,16,13,14.00
2015,03,07,16,14,13.90
2015,03,07,16,15,13.90
2015,03,07,16,16,13.80
2015,03,07,16,17,13.80
2015,03,07,16,18,13.70
2015,03,07,16,19,13.70
2015,03,07,16,20,13.60
2015,03,07,16,21,13.50
2015,03,07,16,22,13.40
2015,03,07,16,23,13.20
2015,03,07,16,24,13.10
2015,03,07,16,25,13.00
2015,03,07,16,26,12.90
2015,03,07,16,27,12.70
2015,03,07,16,28,12.60
2015,03,07,16,29,12.60
2015,03,07,16,30,12.50
2015,03,07,16,31,12.40
2015,03,07,16,32,12.40
2015,03,07,16,33,12.40
2015,03,07,16,34,12.40
2015,03,07,16,35,12.50
2015,03,07,16,36,12.50
2015,03,07,16,37,12.60
2015,03,07,16,38,12.60
2015,03,07,16,39,12.70
2015,03,07,16,40,12.70
2015,03,07,16,41,12.70
2015,03,07,16,42,12.80
2015,03,07,16,43,12.80
2015,03,07,16,44,12.80
2015,03,07,16,45,12.90
2015,03,07,16,46,12.90
2015,03,07,16,47,12.90
2015,03,07,16,48,12.90
2015,03,07,16,49,12.90
2015,03,07,16,50,12.90
2015,03,07,16,51,12.90
2015,03,07,16,52,12.90
2015,03,07,16,53,12.90
2015,03,07,16,54,12.90
2015,03,07,16,55,12.90
2015,03,07,16,56,12.90
2015,03,07,16,57,12.90
2015,03,07,16,58,13.00
2015,03,07,16,59,13.10
2015,03,07,17,00,13.10
2015,03,07,17,01,13.20
2015,03,07,17,02,13.20
2015,03,07,17,03,13.20
2015,03,07,17,04,13.30
2015,03,07,17,05,13.30
2015,03,07,17,06,13.30
2015,03,07,17,07,13.30
2015,03,07,17,08,13.30
2015,03,07,17,09,13.40
2015,03,07,17,10,13.40
2015,03,07,17,11,13.40
2015,03,07,17,12,13.40
2015,03,07,17,13,13.30
2015,03,07,17,14,13.30
2015,03,07,17,15,13.20
2015,03,07,17,16,13.10
2015,03,07,17,17,13.00
2015,03,07,17,18,12.90
2015,03,07,17,19,12.80
2015,03,07,17,20,12.70
2015,03,07,17,21,12.50
2015,03,07,17,22,12.40
2015,03,07,17,23,12.20
2015,03,07,17,24,12.10
2015,03,07,17,25,12.00
2015,03,07,17,26,11.90
2015,03,07,17,27,11.80
2015,03,07,17,28,11.70
2015,03,07,17,29,11.50
2015,03,07,17,30,11.40
2015,03,07,17,31,11.30
2015,03,07,17,32,11.20
2015,03,07,17,33,11.00
2015,03,07,17,34,10.90
2015,03,07,17,35,10.80
2015,03,07,17,36,10.80
2015,03,07,17,37,10.70
2015,03,07,17,38,10.60
2015,03,07,17,39,10.60
2015,03,07,17,40,10.50
2015,03,07,17,41,10.50
2015,03,07,17,42,10.40
2015,03,07,17,43,10.40
2015,03,07,17,44,10.30
2015,03,07,17,45,10.30
2015,03,07,17,46,10.20
2015,03,07,17,47,10.20
2015,03,07,17,48,10.10